Tracking 19242 objects as of 15-Aug-2018
HD Live streaming from Space Station
objects crossing your sky now

HISPASAT 1A

Track HISPASAT 1A now!
HISPASAT 1A is classified as:


NORAD ID: 22116
Int'l Code: 1992-060A
Perigee: 36,036.4 km
Apogee: 36,089.9 km
Inclination: 12.1 °
Period: 1,449.9 minutes
Semi major axis: 42434 km
RCS: 7.143 m2 (large)
Launch date: September 10, 1992
Source: Spain (SPN)
Launch site: FRENCH GUIANA (FRGUI)
aabbcc
Your satellite tracking list
Your tracking list is empty




NASA's NSSDC Master Catalog

Two Line Element Set (TLE):
1 22116U 92060A   18225.86123855 -.00000327 +00000-0 +00000-0 0  9998
2 22116 012.1101 031.4399 0006310 230.4003 138.4151 00.99318399091050
Source of the keplerian elements: AFSPC